Location: Bruch
(44.2051°N, 0.4120°E)
Time: 12:28:08
(UTC+00:00)

Cosmos 1151 Rocket - Pass Details

Date: 29 November 2020
Orbit: 593 x 615 km, 82.5° (Epoch: 25 January)

Event Time Altitude Azimuth Distance (km) Brightness Sun altitude
Exits shadow 05:53:56 19° 261° (W) 1,461 4.4 -13.6°
Drops below altitude 10° 05:56:19 10° 228° (SW) 1,935 5.3 -13.2°
Sets 05:59:01 0° 211° (SSW) 2,835 6.3 -12.7°
